カタログに戻る

TELECOM 2C

運用中通信GEO
NORAD 23730·PAYLOAD·🇫🇷 France

打ち上げ Dec 6, 1995 から Guiana Space Centre

Loading…

TLE

最新Source: Space-Track

元期: Sep 13, 2026, 22:36 UTC

1 23730U 95067A   26256.94234284 -.00000077  00000-0  00000-0 0  9994
2 23730  14.1912  15.4083 0013493 287.9817  72.8231  0.97937637111331

AllMySatでTELECOM 2Cをリアルタイム追跡

Download on the App Store